This demonstration page uses our WeatherBlox Daily Observations layout. Learn more.

39.92423, -83.80882

Hourly Observations for April 27, 2017

Temp ( °F °C ) Dew Point ( °F °C ) Humidity (%) Winds ( mph kmh ) Pressure ( in mb ) Visibility ( mi km ) Precip ( " mm )
12:56 am 00:56 Clear 67 19.4 49 9.4 53 53 SSE 9 15 29.58 1002 10 16.0934 0 0
1:56 am 01:56 Clear 69 20.6 52 11.1 55 55 S 7 11 29.58 1002 10 16.0934 0 0
2:56 am 02:56 Clear 70 21.1 54 12.2 57 57 S 10 17 29.57 1001 10 16.0934 0 0
3:56 am 03:56 Clear 67 19.4 54 12.2 63 63 S 9 15 29.57 1001 10 16.0934 0 0
4:56 am 04:56 Cloudy 69 20.6 56 13.3 63 63 S 16 26 29.55 1001 10 16.0934 0 0
5:56 am 05:56 Mostly Cloudy 70 21.1 57 13.9 64 64 SSW 15 24 29.57 1001 10 16.0934 0 0
6:56 am 06:56 Sunny 68 20 57 13.9 68 68 S 10 17 29.55 1001 10 16.0934 0 0
7:56 am 07:56 Mostly Cloudy 67 19.4 57 13.9 71 71 S 8 13 29.54 1000 10 16.0934 0 0
8:56 am 08:56 Partly Cloudy 67 19.4 57 13.9 71 71 S 10 17 29.57 1001 10 16.0934 0 0
9:56 am 09:56 Mostly Cloudy 70 21.1 57 13.9 64 64 SSW 16 26 29.55 1001 10 16.0934 0 0
10:52 am 10:52 Cloudy with Light Rain 64 18 55 13 73 73 WSW 26 43 29.56 1001 10 16.0934 0 0.0254
10:56 am 10:56 Cloudy 63 17.2 55 12.8 76 76 WSW 22 35 29.59 1002 10 16.0934 0 0.0254
11:56 am 11:56 Cloudy with Heavy Rain 62 16.7 58 14.4 86 86 SW 16 26 29.62 1003 8 12.87472 0.06 1.524
12:56 pm 12:56 Cloudy 66 18.9 60 15.6 81 81 SW 20 31 29.62 1003 10 16.0934 0.04 1.016
1:56 pm 13:56 Cloudy 68 20 58 14.4 70 70 WSW 24 39 29.61 1003 9 14.48406 0 0
2:14 pm 14:14 Mostly Cloudy 66 19 61 16 83 83 WSW 18 30 29.62 1003 10 16.0934 0.02 0.508
2:26 pm 14:26 Cloudy with Nearby Thunderstorms 66 19 59 15 78 78 WSW 15 24 29.62 1003 10 16.0934 0.02 0.508
2:41 pm 14:41 Cloudy 66 19 57 14 73 73 WSW 16 26 29.62 1003 10 16.0934 0.02 0.508
2:56 pm 14:56 Cloudy 65 18.3 56 13.3 73 73 W 20 31 29.64 1004 10 16.0934 0.02 0.508
3:56 pm 15:56 Mostly Cloudy 67 19.4 53 11.7 61 61 W 25 41 29.67 1005 10 16.0934 0 0
5:56 pm 17:56 Partly Cloudy 64 17.8 48 8.9 56 56 WSW 17 28 29.74 1007 10 16.0934 0 0
6:56 pm 18:56 Mostly Cloudy 63 17.2 47 8.3 56 56 W 17 28 29.76 1008 10 16.0934 0 0
7:56 pm 19:56 Mostly Cloudy 59 15 46 7.8 62 62 W 14 22 29.79 1009 10 16.0934 0 0
8:56 pm 20:56 Partly Cloudy 56 13.3 45 7.2 67 67 W 13 20 29.81 1010 10 16.0934 0 0
9:56 pm 21:56 Clear 53 11.7 45 7.2 74 74 WSW 9 15 29.85 1011 10 16.0934 0 0
10:56 pm 22:56 Clear 50 10 45 7.2 83 83 WSW 7 11 29.88 1012 10 16.0934 0 0
11:56 pm 23:56 Clear 50 10 45 7.2 83 83 W 8 13 29.88 1012 10 16.0934 0 0

Powered by AerisWeather